Flag for Brazil Weather past 2 weeks in Foz do Iguaçu, Paraná, Brazil

Now
73 °F

Partly cloudy.


Feels Like: 70 °F
Forecast: 72 / 77 °F
Wind: 3 mph from South

Location: Foz Do Iguacu Aeroporto

Current Time: Apr 21, 2015 at 4:10:53 AM

Latest Report: Apr 21, 2015 at 3:00 AM


Visibility: N/A

Pressure: 29.86 "Hg

Humidity: 94%

Dew point: 72 °F

Location of Foz do IguaçuLocation

Historic Weather in Foz do Iguaçu — Graph

°F

Foz do Iguaçu temperature yesterday

Maximum temperature yesterday: 88 °F (at 1:00 PM)
Minimum temperature yesterday: 73 °F (at 12:00 AM)
Average temperature yesterday: 78 °F

Past Weeks' High & Low Weather Summary

 TemperatureHumidityPressure
High88 °F (Apr 11, 2:00 PM)100% (Apr 7, 7:00 AM)30.12 "Hg (Apr 7, 7:00 AM)
Low55 °F (Apr 7, 7:00 AM)40% (Apr 11, 3:00 PM)29.74 "Hg (Apr 20, 4:00 PM)
Average73 °F83%29.95 "Hg
* Reported Apr 6 2:00 AM — Apr 21 2:00 AM, Foz do Iguaçu, Weather by CustomWeather, © 2015

Note: Actual official high and low records may vary slightly from our data, if they occured in-between our weather recording intervals... More about our weather records

Advertising

Foz do Iguaçu weather history for previous 24 hours

 ConditionsComfort  
Time TempWeatherWind HumidityBarometerVisibility
2:00 AM
Tue, Apr 21
73 °FThunderstorms. Passing clouds.5 mph94%29.86 "HgN/A
1:00 AM73 °FThunderstorms. Passing clouds.3 mph94%29.86 "HgN/A
12:00 AM73 °FThunderstorms. Passing clouds.2 mph94%29.86 "HgN/A
11:00 PM
Mon, Apr 20
73 °FThunderstorms. Passing clouds.5 mph100%29.89 "HgN/A
10:00 PM75 °FThunderstorms. Partly cloudy.3 mph94%29.86 "HgN/A
9:00 PM75 °FThunderstorms. Passing clouds.5 mph94%29.86 "HgN/A
8:00 PM75 °FThunderstorms. Partly cloudy.7 mph94%29.83 "HgN/A
7:00 PM77 °FThunderstorms. Passing clouds.3 mph89%29.80 "HgN/A
6:00 PM81 °FPassing clouds.3 mph79%29.80 "HgN/A
5:00 PM84 °FPartly sunny.8 mph62%29.77 "HgN/A
4:00 PM86 °FPartly sunny.13 mph59%29.74 "HgN/A
3:00 PM86 °FPartly sunny.12 mph59%29.77 "HgN/A
2:00 PM86 °FPartly sunny.12 mph66%29.77 "HgN/A
1:00 PM88 °FPartly sunny.14 mph55%29.80 "HgN/A
12:00 PM86 °FBroken clouds.15 mph59%29.83 "HgN/A
11:00 AM82 °FPartly sunny.13 mph66%29.86 "HgN/A
10:00 AM82 °FScattered clouds.14 mph66%29.86 "HgN/A
9:00 AM81 °FScattered clouds.14 mph74%29.83 "HgN/A
8:00 AM77 °FScattered clouds.8 mph83%29.83 "HgN/A
7:00 AM73 °FSunny.7 mph94%29.80 "Hg10 mi
6:00 AM73 °FSunny.6 mph89%29.80 "Hg10 mi
5:00 AM73 °FClear.7 mph94%29.80 "Hg10 mi
4:00 AM73 °FClear.3 mph94%29.83 "Hg10 mi
Weather by CustomWeather, © 2015

See weather overviewHow to use our weather pages